DLH796 EDDF-VHHH

Flight info

Callsign DLH796
Flight time N/A
Altitude 31000
Route SULUS7S/18 SULUS Z650 VEMUT/N0480F330 DCT PEPIK DCT NORAH DCT BUDOP DCT LUGEB/N0472F350 DCT UDROS UM859 KARDE UL851 TBN UM11 REBLO/N0478F370 M11 LUSAL N199 RASAM L88 METKA B476 DARVA/K0874F370 T898 OGOLI N193 SR L163 TISIB L141 ETAVI/K0865F390 L141 KAMUD/K0863S1190 W186 SADAN Y1 OMBON W245 OVRAL B330 IGUNI/K0874S1250 B330 KWE W181 DUDIT A599 POU R473 SIERA
Aircraft A343/H-SDE2E3FGHIJ4J5M1RWXY/LB1D1

Departure

Time 2026-05-07 20:25
Airport Frankfurt Main Airport (EDDF)

Arrival

Time N/A
Airport Hong Kong International Airport (VHHH)
Time Latitude Longitude Altitude Speed Heading
2026-05-07 17:53 50.04726 8.56275 360 ft 0 kts 340°
2026-05-07 20:08 50.04710 8.56284 366 ft 4 kts 340°
2026-05-07 20:09 50.04686 8.56298 367 ft 2 kts 340°
2026-05-07 20:09 50.04665 8.56313 368 ft 4 kts 319°
2026-05-07 20:09 50.04651 8.56345 364 ft 4 kts 275°
2026-05-07 20:10 50.04661 8.56411 367 ft 0 kts 250°
2026-05-07 20:12 50.04660 8.56409 367 ft 1 kts 250°
2026-05-07 20:13 50.04654 8.56381 364 ft 4 kts 250°
2026-05-07 20:13 50.04639 8.56320 367 ft 8 kts 250°
2026-05-07 20:13 50.04618 8.56230 364 ft 10 kts 250°
2026-05-07 20:13 50.04592 8.56120 366 ft 12 kts 250°
2026-05-07 20:14 50.04559 8.55995 364 ft 13 kts 238°
2026-05-07 20:14 50.04477 8.55931 365 ft 14 kts 199°
2026-05-07 20:14 50.04380 8.55911 364 ft 15 kts 169°
2026-05-07 20:14 50.04272 8.55960 360 ft 17 kts 184°
2026-05-07 20:15 50.04210 8.55823 363 ft 17 kts 249°
2026-05-07 20:15 50.04168 8.55643 361 ft 18 kts 250°
2026-05-07 20:15 50.04123 8.55448 363 ft 20 kts 249°
2026-05-07 20:15 50.04075 8.55249 363 ft 19 kts 249°
2026-05-07 20:16 50.04026 8.55050 362 ft 20 kts 249°
2026-05-07 20:16 50.03974 8.54837 362 ft 22 kts 249°
2026-05-07 20:16 50.03918 8.54605 359 ft 24 kts 249°
2026-05-07 20:16 50.03854 8.54361 358 ft 25 kts 238°
2026-05-07 20:17 50.03775 8.54126 353 ft 25 kts 248°
2026-05-07 20:17 50.03713 8.53868 354 ft 26 kts 250°
2026-05-07 20:17 50.03651 8.53605 351 ft 26 kts 250°
2026-05-07 20:17 50.03586 8.53335 352 ft 27 kts 249°
2026-05-07 20:18 50.03517 8.53062 353 ft 27 kts 249°
2026-05-07 20:18 50.03467 8.52862 336 ft 16 kts 249°
2026-05-07 20:18 50.03446 8.52777 336 ft 8 kts 248°
2026-05-07 20:18 50.03422 8.52683 337 ft 10 kts 248°
2026-05-07 20:19 50.03378 8.52597 334 ft 11 kts 200°
2026-05-07 20:19 50.03345 8.52594 336 ft 0 kts 180°
2026-05-07 20:23 50.03334 8.52594 337 ft 7 kts 180°
2026-05-07 20:24 50.03149 8.52595 335 ft 52 kts 180°
2026-05-07 20:24 50.02618 8.52603 337 ft 99 kts 178°
2026-05-07 20:24 50.01799 8.52613 338 ft 138 kts 180°
2026-05-07 20:24 50.00707 8.52623 334 ft 171 kts 179°
2026-05-07 20:25 49.99493 8.52711 642 ft 176 kts 173°
2026-05-07 20:25 49.98278 8.52853 1146 ft 174 kts 177°
2026-05-07 20:25 49.97047 8.53068 1421 ft 186 kts 161°
2026-05-07 20:25 49.96019 8.54326 1640 ft 199 kts 122°
2026-05-07 20:26 49.95265 8.56279 1809 ft 223 kts 116°
2026-05-07 20:26 49.94503 8.58498 2139 ft 241 kts 115°
2026-05-07 20:26 49.94025 8.61029 2715 ft 247 kts 95°
2026-05-07 20:26 49.93905 8.63723 3340 ft 253 kts 91°
2026-05-07 20:27 49.93813 8.66482 3957 ft 260 kts 93°
2026-05-07 20:27 49.93398 8.69226 4567 ft 267 kts 116°
2026-05-07 20:27 49.92172 8.71392 5238 ft 271 kts 143°
2026-05-07 20:27 49.90626 8.73094 5907 ft 274 kts 146°
2026-05-07 20:28 49.89071 8.74827 6571 ft 278 kts 140°
2026-05-07 20:28 49.87827 8.77118 7196 ft 280 kts 121°
2026-05-07 20:28 49.86864 8.79756 7867 ft 282 kts 118°
2026-05-07 20:28 49.85917 8.82434 8507 ft 285 kts 119°
2026-05-07 20:29 49.84947 8.85142 9129 ft 288 kts 120°
2026-05-07 20:29 49.83963 8.87858 9737 ft 291 kts 120°
2026-05-07 20:29 49.82969 8.90599 10298 ft 296 kts 120°
2026-05-07 20:29 49.81936 8.93441 10571 ft 309 kts 120°
2026-05-07 20:30 49.81225 8.95396 10748 ft 318 kts 120°